When you browse on this site, cookies collect data to enhance your experience and personalize the content and advertising you see.
Visit our Privacy Policy to learn more. By continuing to use the site, you agree to this use of cookies and data.
  • In Lithuania
  • List of Countries
  • For 7 days
  • Water Temperature
  • Weather Map
  • Weather Widgets
  • user-avatar
    Login

    Hourly Weather Salyan

    Today, 22 November, Friday

    Time Temperature Precipitation Wind Pressure Humidity
    00:00 +12°C° 0 mm 1 mps 654 mmHg 88%
    01:00 +12°C° 0 mm 1 mps 654 mmHg 87%
    02:00 +12°C° 0 mm 1 mps 653 mmHg 86%
    03:00 +11°C° 0 mm 1 mps 653 mmHg 85%
    04:00 +11°C° 0 mm 1 mps 653 mmHg 83%
    05:00 +11°C° 0 mm 1 mps 653 mmHg 81%
    06:00 +13°C° 0 mm 1 mps 654 mmHg 76%
    07:00 +15°C° 0 mm 1 mps 655 mmHg 70%
    08:00 +15°C° 0 mm 0 mps 656 mmHg 64%
    09:00 +19°C° 0 mm 1 mps 656 mmHg 60%
    10:00 +20°C° 0 mm 1 mps 656 mmHg 57%
    11:00 +21°C° 0 mm 2 mps 656 mmHg 54%
    12:00 +21°C° 0 mm 2 mps 656 mmHg 55%
    13:00 +20°C° 0 mm 2 mps 655 mmHg 56%
    14:00 +20°C° 0 mm 2 mps 654 mmHg 57%
    15:00 +19°C° 0 mm 1 mps 654 mmHg 66%
    16:00 +16°C° 0 mm 1 mps 653 mmHg 75%
    17:00 +13°C° 0 mm 0 mps 653 mmHg 84%
    18:00 +13°C° 0 mm 0 mps 653 mmHg 84%
    19:00 +13°C° 0 mm 0 mps 654 mmHg 84%
    20:00 +13°C° 0 mm 1 mps 654 mmHg 85%
    21:00 +13°C° 0 mm 1 mps 654 mmHg 84%
    22:00 +13°C° 0 mm 1 mps 654 mmHg 83%
    23:00 +13°C° 0 mm 1 mps 653 mmHg 82%

    Tomorrow, 23 November, Saturday

    Time Temperature Precipitation Wind Pressure Humidity
    00:00 +13°C° 0 mm 1 mps 653 mmHg 80%
    01:00 +13°C° 0 mm 1 mps 653 mmHg 79%
    02:00 +13°C° 0 mm 1 mps 652 mmHg 78%
    03:00 +13°C° 0 mm 1 mps 652 mmHg 77%
    04:00 +12°C° 0 mm 1 mps 652 mmHg 76%
    05:00 +12°C° 0 mm 1 mps 652 mmHg 75%
    06:00 +14°C° 0 mm 1 mps 653 mmHg 72%
    07:00 +14°C° 0 mm 0 mps 654 mmHg 68%
    08:00 +16°C° 0 mm 0 mps 655 mmHg 65%
    09:00 +19°C° 0 mm 1 mps 655 mmHg 62%
    10:00 +20°C° 0 mm 1 mps 655 mmHg 59%
    11:00 +21°C° 0 mm 1 mps 655 mmHg 57%
    12:00 +21°C° 0 mm 1 mps 655 mmHg 58%
    13:00 +21°C° 0 mm 1 mps 654 mmHg 60%
    14:00 +21°C° 0 mm 1 mps 654 mmHg 61%
    15:00 +19°C° 0 mm 1 mps 653 mmHg 69%
    16:00 +16°C° 0 mm 1 mps 653 mmHg 76%
    17:00 +13°C° 0 mm 0 mps 652 mmHg 83%
    18:00 +13°C° 0 mm 0 mps 652 mmHg 84%
    19:00 +13°C° 0 mm 0 mps 653 mmHg 84%
    20:00 +12°C° 0 mm 0 mps 653 mmHg 85%
    21:00 +13°C° 0 mm 1 mps 653 mmHg 83%
    22:00 +13°C° 0 mm 1 mps 653 mmHg 82%
    23:00 +13°C° 0 mm 1 mps 652 mmHg 80%

    Day after tomorrow, 24 November, Sunday

    Time Temperature Precipitation Wind Pressure Humidity
    00:00 +12°C° 0 mm 1 mps 652 mmHg 77%
    01:00 +12°C° 0 mm 1 mps 652 mmHg 74%
    02:00 +12°C° 0 mm 1 mps 652 mmHg 72%
    03:00 +12°C° 0 mm 1 mps 652 mmHg 69%
    04:00 +12°C° 0 mm 1 mps 652 mmHg 66%
    05:00 +12°C° 0 mm 1 mps 651 mmHg 63%
    06:00 +14°C° 0 mm 1 mps 652 mmHg 59%
    07:00 +15°C° 0 mm 1 mps 653 mmHg 54%
    08:00 +16°C° 0 mm 0 mps 655 mmHg 50%
    09:00 +20°C° 0 mm 1 mps 655 mmHg 47%
    10:00 +22°C° 0 mm 1 mps 655 mmHg 44%
    11:00 +24°C° 0 mm 1 mps 655 mmHg 41%
    12:00 +24°C° 0 mm 2 mps 655 mmHg 42%
    13:00 +24°C° 0 mm 2 mps 654 mmHg 43%
    14:00 +23°C° 0 mm 2 mps 654 mmHg 45%
    15:00 +21°C° 0 mm 1 mps 653 mmHg 56%
    16:00 +19°C° 0 mm 1 mps 653 mmHg 67%
    17:00 +14°C° 0 mm 0 mps 652 mmHg 78%
    18:00 +14°C° 0 mm 0 mps 653 mmHg 77%
    19:00 +14°C° 0 mm 1 mps 653 mmHg 76%
    20:00 +14°C° 0 mm 1 mps 653 mmHg 76%
    21:00 +14°C° 0 mm 1 mps 653 mmHg 72%
    22:00 +14°C° 0 mm 1 mps 653 mmHg 68%
    23:00 +13°C° 0 mm 1 mps 653 mmHg 64%

    25 November, Monday

    Time Temperature Precipitation Wind Pressure Humidity
    00:00 +13°C° 0 mm 1 mps 653 mmHg 61%
    01:00 +13°C° 0 mm 1 mps 653 mmHg 59%
    02:00 +13°C° 0 mm 1 mps 653 mmHg 56%
    03:00 +13°C° 0 mm 1 mps 653 mmHg 54%
    04:00 +12°C° 0 mm 1 mps 653 mmHg 52%
    05:00 +12°C° 0 mm 1 mps 652 mmHg 50%
    06:00 +14°C° 0 mm 1 mps 653 mmHg 48%
    07:00 +15°C° 0 mm 1 mps 654 mmHg 47%
    08:00 +18°C° 0 mm 1 mps 655 mmHg 46%
    09:00 +19°C° 0 mm 1 mps 655 mmHg 42%
    10:00 +21°C° 0 mm 1 mps 656 mmHg 37%
    11:00 +23°C° 0 mm 1 mps 656 mmHg 33%
    12:00 +23°C° 0 mm 1 mps 656 mmHg 34%
    13:00 +23°C° 0 mm 2 mps 655 mmHg 34%
    14:00 +23°C° 0 mm 2 mps 655 mmHg 34%
    15:00 +20°C° 0 mm 1 mps 654 mmHg 45%
    16:00 +16°C° 0 mm 1 mps 653 mmHg 56%
    17:00 +13°C° 0 mm 0 mps 653 mmHg 67%
    18:00 +13°C° 0 mm 1 mps 653 mmHg 68%
    19:00 +13°C° 0 mm 1 mps 654 mmHg 68%
    20:00 +12°C° 0 mm 1 mps 654 mmHg 69%
    21:00 +12°C° 0 mm 1 mps 654 mmHg 67%
    22:00 +12°C° 0 mm 1 mps 654 mmHg 66%
    23:00 +10°C° 0 mm 2 mps 654 mmHg 64%

    26 November, Tuesday

    Time Temperature Precipitation Wind Pressure Humidity
    00:00 +10°C° 0 mm 2 mps 653 mmHg 61%
    01:00 +10°C° 0 mm 2 mps 653 mmHg 59%
    02:00 +10°C° 0 mm 2 mps 653 mmHg 57%
    03:00 +9°C° 0 mm 2 mps 653 mmHg 54%
    04:00 +9°C° 0 mm 2 mps 653 mmHg 52%
    05:00 +9°C° 0 mm 2 mps 653 mmHg 50%
    06:00 +12°C° 0 mm 2 mps 654 mmHg 48%
    07:00 +14°C° 0 mm 1 mps 654 mmHg 45%
    08:00 +15°C° 0 mm 1 mps 655 mmHg 43%
    09:00 +18°C° 0 mm 1 mps 656 mmHg 39%
    10:00 +21°C° 0 mm 1 mps 656 mmHg 34%
    11:00 +23°C° 0 mm 1 mps 656 mmHg 30%
    12:00 +23°C° 0 mm 1 mps 656 mmHg 30%
    13:00 +23°C° 0 mm 1 mps 655 mmHg 29%
    14:00 +23°C° 0 mm 1 mps 655 mmHg 29%
    15:00 +20°C° 0 mm 1 mps 654 mmHg 37%
    16:00 +16°C° 0 mm 1 mps 653 mmHg 44%
    17:00 +13°C° 0 mm 0 mps 653 mmHg 52%
    18:00 +13°C° 0 mm 1 mps 653 mmHg 51%
    19:00 +13°C° 0 mm 1 mps 654 mmHg 50%
    20:00 +12°C° 0 mm 2 mps 654 mmHg 49%
    21:00 +12°C° 0 mm 2 mps 654 mmHg 47%
    22:00 +12°C° 0 mm 2 mps 654 mmHg 45%
    23:00 +10°C° 0 mm 2 mps 654 mmHg 43%

    27 November, Wednesday

    Time Temperature Precipitation Wind Pressure Humidity
    00:00 +12°C° 0 mm 2 mps 654 mmHg 42%
    01:00 +12°C° 0 mm 2 mps 654 mmHg 40%
    02:00 +12°C° 0 mm 2 mps 654 mmHg 38%
    03:00 +12°C° 0 mm 2 mps 654 mmHg 37%
    04:00 +12°C° 0 mm 2 mps 654 mmHg 37%
    05:00 +10°C° 0 mm 2 mps 654 mmHg 36%
    06:00 +13°C° 0 mm 1 mps 655 mmHg 36%
    07:00 +15°C° 0 mm 1 mps 656 mmHg 36%
    08:00 +16°C° 0 mm 1 mps 656 mmHg 36%
    09:00 +19°C° 0 mm 1 mps 657 mmHg 32%
    10:00 +21°C° 0 mm 1 mps 657 mmHg 28%
    11:00 +24°C° 0 mm 1 mps 658 mmHg 25%
    12:00 +24°C° 0 mm 1 mps 657 mmHg 26%
    13:00 +23°C° 0 mm 1 mps 656 mmHg 27%
    14:00 +23°C° 0 mm 2 mps 656 mmHg 28%
    15:00 +21°C° 0 mm 1 mps 655 mmHg 36%
    16:00 +18°C° 0 mm 1 mps 654 mmHg 44%
    17:00 +13°C° 0 mm 0 mps 653 mmHg 52%
    18:00 +14°C° 0 mm 1 mps 654 mmHg 52%
    19:00 +13°C° 0 mm 1 mps 654 mmHg 51%
    20:00 +13°C° 0 mm 1 mps 654 mmHg 51%
    21:00 +13°C° 0 mm 1 mps 654 mmHg 51%
    22:00 +12°C° 0 mm 1 mps 654 mmHg 50%
    23:00 +12°C° 0 mm 2 mps 654 mmHg 49%
    Show more